Regional Weather Roundup
Issued by NWS Goodland, KS

Home | Current Version | Previous Version | Graphics & Text | Print | Product List | Glossary On
Versions: 1 2 3 4 5 6 7 8 9 10 11 12 13 14 15 16 17 18 19 20 21 22 23 24 25 26 27 28 29 30 31 32 33 34 35 36 37 38 39 40 41 42 43 44 45 46 47 48 49 50
000
ASUS43 KGLD 230508
RWRGLD

GOODLAND FORECAST AREA HOURLY WEATHER ROUNDUP
NATIONAL WEATHER SERVICE GOODLAND KS
1100 PM MDT SUN OCT 22 2017

...OFFICIAL OBSERVATIONS...

CITY           SKY/WX    TMP DP  RH WIND       PRES   REMARKS
GOODLAND KS    CLOUDY    49  26  41 SW10      30.05S
HILL CITY KS   CLEAR     52  29  41 W6        30.01F
IMPERIAL NEB   CLEAR     44  31  60 W8        30.02S
MCCOOK NEB     CLOUDY    50  28  42 W10       29.99F
AKRON CO       CLOUDY    49  28  44 W10       30.10R
BURLINGTON CO  CLOUDY    44  27  51 W12       30.09S
LIMON CO       CLOUDY    34  27  75 N5        30.16R
$$

...UNOFFICIAL OBSERVATIONS...

CITY           SKY/WX    TMP DP  RH WIND       PRES   REMARKS
COLBY KS       CLOUDY    43  32  65 W7        30.05S
LENORA KS        N/A     53  32  45 SW7         N/A
NORTON KS      CLEAR     48  25  40 SW7       29.98S
SHARON SPRINGS   N/A     46  29  51 CALM        N/A
TRENTON NEB      N/A     52  32  46 W5          N/A
KIT CARSON CO    N/A     44  26  49 CALM        N/A
YUMA CO        FAIR      43  30  61 W9        30.07S
$$




USA.gov is the U.S. government's official web portal to all federal, state and local government web resources and services.